Location: Unspecified
(0.0000°N, 0.0000°E)
Time: 07:46:31
(UTC+00:00)

X-37B - Pass Details

Date: 16 September 2021
Orbit: 381 x 393 km, 45.0° (Epoch: 29 August)

Event Time Altitude Azimuth Distance (km) Brightness Sun altitude
Exits shadow 04:17:11 11° 22° (NNE) 1,323 3.5 -24.4°
Drops below altitude 10° 04:17:19 10° 23° (NNE) 1,371 3.6 -24.4°
Sets 04:19:30 0° 31° (NNE) 2,240 4.9 -23.8°
